STARLINK-1335, 45581

Orbit data source: Space-Track

STARLINK-1335, 45581 is a payload satellite owned by SpaceX/Seattle (US) in LEO that was launched on Wed, 22 Apr 2020 UTC via an FALCON 9 launch vehicle from the Air Force Eastern Test Range (AFETR). Payload-class satellites include a variety of spacecraft equipped with specific instruments for various scientific and technological missions. These include communications satellites like Starlink; space stations such as the ISS; scientific satellites like the Hubble; Earth observation satellites from companies like Planet Labs, Umbra, and HawkEye 360; GPS; miniature CubeSats for education and research; and military/defense satellites.

Loading next visibility...
Identifier
45581, 2020-025BC
Orbit
LEO
Country
Flag of USUS
Related business
Manufacturer
SpaceX/Seattle
Mission
Operational Commercial Communications
Bus & Motor
STARLINK, Unknown motor
Mass
260 kg wet, ~248 kg dry
Launch date (UTC)
2020-04-22 (6 years ago)
Launch vehicle
FALCON 9
Launch site
Air Force Eastern Test Range (AFETR)
Object type
Payload
Rocket body
Debris
Shape & HBR
Box + 1 Pan, 10.1 m
Radar Cross Section
13.562 m², Large (>1 m²)

Expand to show TLE details & history
Last TLE update: 4 hours ago

TLE from 4 hours ago
0 STARLINK-1335
1 45581U 20025BC  26123.86712117  .00048665  00000-0  14666-2 0  9993
2 45581  53.1547 178.4450 0004128  18.1050 342.0099 15.33863039333983
Epoch: 2026-05-03T20:48Z
TLE epoch observation values (Epoch: 2026-05-03T20:48:39.269Z)
Latitude
0.00003°
Longitude
4.51689°
Altitude
462.514 km
Speed
7.638 km/s
True Right ascension
11h 53m 46s
True Declination
0° 00' 00"
Sunlit
Object was in full shadow at epoch
Visualization orbit readout
Latitude
Unknown
Longitude
Unknown
Altitude
Unknown
Speed
Unknown
Apparent Right ascension
Unknown
Apparent Declination
Unknown
Sunlit
N/A
Visualization observer readout
Local Sidereal Time
08:17:45
Azimuth
Unknown
Elevation
Unknown
Doppler factor
Unknown
Orbital elements
Apogee altitude
467.382 km
Perigee altitude
461.733 km
Semi-major axis
6,842.694 km
Eccentricity
0.00041
Inclination
53.1547°
RAAN
178.445°
Arg. of periapsis
18.105°
True anomaly
341.99528°
Mean anomaly
342.0099°
Eccentric anomaly
342.00259°
Mean motion
3.83444 °/min
Orbital period
93.89 mins
BSTAR
0.0014666
Loading maneuver chart data...
Computing Atmospheric mass density...
Loading historical data...
Loading historical data...
Loading historical data...
Loading historical data...
Loading historical data...
Loading historical data...
Loading historical data...

Documentation

Showing up to 5 results
|